Location: Ajisawe
(8.4333°N, 4.3833°E)
Time: 08:06:42
(UTC+00:00)

SR - All Passes

Search period start: 20 April 2021 00:00
Search period end: 30 April 2021 00:00
Orbit: 573 x 882 km, 66.7° (Epoch: 19 April)

Date Brightness Start Highest point End Pass type
(mag) Time Alt. Az. Time Alt. Az. Time Alt. Az.
20 Apr - 04:45:15 10° SE 04:48:14 16° ESE 04:51:20 10° ENE visible
20 Apr - 06:25:16 10° SW 06:29:53 34° WNW 06:34:52 10° N daylight
20 Apr - 17:05:35 10° NNW 17:10:54 77° ENE 17:15:44 10° SSE daylight
21 Apr - 05:35:01 10° SSW 05:40:05 86° WNW 05:45:39 10° NNE daylight
21 Apr - 16:16:31 10° N 16:21:06 29° ENE 16:25:21 10° SE daylight
21 Apr - 17:59:38 10° WNW 18:02:46 16° WSW 18:05:46 10° SW daylight
22 Apr - 04:45:50 10° S 04:50:28 36° ESE 04:55:28 10° NE visible
22 Apr - 06:29:27 10° W 06:32:29 15° WNW 06:35:39 10° NNW daylight
22 Apr - 15:29:26 10° NE 15:31:07 11° ENE 15:32:46 10° E daylight
22 Apr - 17:08:17 10° NW 17:13:14 43° WSW 17:17:47 10° S daylight
23 Apr - 03:58:15 10° SE 04:00:56 14° ESE 04:03:42 10° ENE visible
23 Apr - 05:37:48 10° SW 05:42:33 37° WNW 05:47:40 10° N daylight
23 Apr - 16:18:19 10° NNW 16:23:35 70° ENE 16:28:22 10° SSE daylight
24 Apr - 04:47:40 10° SSW 04:52:46 86° ESE 04:58:21 10° NNE visible
24 Apr - 15:29:21 10° N 15:33:45 26° ENE 15:37:50 10° ESE daylight
24 Apr - 17:12:04 10° WNW 17:15:27 18° WSW 17:18:41 10° SSW daylight
25 Apr - 03:58:35 10° S 04:03:09 33° ESE 04:08:04 10° NE visible
25 Apr - 05:41:46 10° WSW 05:45:09 17° WNW 05:48:39 10° NNW daylight
25 Apr - 14:43:18 10° ENE 14:43:46 10° ENE 14:44:13 10° ENE daylight
25 Apr - 16:20:55 10° NW 16:25:55 47° WSW 16:30:30 10° S daylight
26 Apr - 03:11:19 10° SE 03:13:37 13° ESE 03:16:00 10° E visible
26 Apr - 04:50:22 10° SW 04:55:13 41° WNW 05:00:28 10° N visible
26 Apr - 15:31:02 10° NNW 15:36:14 63° ENE 15:40:59 10° SSE daylight
27 Apr - 04:00:20 10° SSW 04:05:27 79° ESE 04:11:03 10° NNE visible
27 Apr - 14:42:12 10° NNE 14:46:23 24° ENE 14:50:18 10° ESE daylight
27 Apr - 16:24:31 10° WNW 16:28:08 20° WSW 16:31:34 10° SSW daylight
28 Apr - 03:11:22 10° SSE 03:15:50 31° ESE 03:20:39 10° NE visible
28 Apr - 04:54:09 10° WSW 04:57:47 19° WNW 05:01:36 10° NNW visible
28 Apr - 15:33:33 10° NNW 15:38:35 52° WSW 15:43:12 10° S daylight
29 Apr - 02:24:30 10° SE 02:26:19 12° ESE 02:28:11 10° E visible
29 Apr - 04:02:55 10° SW 04:07:52 45° WNW 04:13:14 10° N visible
29 Apr - 14:43:46 10° N 14:48:54 56° ENE 14:53:34 10° SSE daylight
